Starlink 2585

operational
NORAD ID: 48382 Int'l Des: 2021-038 Owner: SPXS Country: US Constellation: starlink
LEOCIRCULARSTARLINK_TYPE

Über Starlink 2585

Beschreibung wird geladen...

Live-Position

3D-Globus wird geladen...

Nächste Überflüge

Höhenverlauf

Altitude vs Time

uPlot chart will show altitude changes over time

Zweizeiliger Elementsatz

1 48382U 21038AF 25259.16604937 .00000542 00000-0 55272-4 0 9994
2 48382 53.0557 55.0868 0001217 88.0788 272.0341 15.06395885240863
Epoch: 16. Sept. 2025 • Age: 13 hours

Aktueller Status

Höhe 559.2 km
Geschwindigkeit 7.58 km/s
Subsatellitenpunkt -35.64°S, 136.67°E
Startdatum 4. Mai 2021
Alter 4.3 years
Typ internet

Technische Details

Klassifizierung Payload
Masse 260.00 kg
Trockenmasse 248.00 kg
Gesamtmasse 260.00 kg
Länge 0.20 m
Durchmesser 2.80 m
Spannweite 9.00 m
Form Box + pan
Hersteller SPXS
Bus-Typ Starlink
Phasenstatus In Orbit
Besitzer/Staat SPXS/US

Große Konstellationen

Loading constellations...